[[{"header":{"parameterUnit":"m.s-1","parameterCategory":1,"la1":30.2991,"la2":30.254,"lo1":-89.0895,"lo2":-89.0444,"dy":0.0017,"dx":0.0017,"nx":28,"ny":28,"refTime":"2023-09-25T21:00:00:Z","depth":0,"parameterNumber":2,"parameterNumberName":"U-component_of_WINDS"},"data":[0,0,0,0,0,0,0,0,0,0,0,0,0,0,0,0,0,0,0,0,0,0,0,0,0,0,0,0,0,0,0,0,0,0,0,0,0,0,0,0,0,0,0,0,0,0,0,0,0,0,0,0,0,0,0,0,0,0,-3.6714,-3.6715,0,-3.6819,-3.682,-3.6821,-3.6768,-3.6766,-3.6763,-3.676,-3.6868,-3.6873,-3.6879,0,0,0,0,0,0,0,0,0,0,0,0,0,-3.6466,-3.6471,-3.6714,-3.6715,-3.6717,-3.6819,-3.682,-3.6822,-3.6769,-3.6766,-3.6762,-3.6759,-3.6866,-3.6873,-3.6879,0,0,0,0,0,0,0,0,0,0,0,0,0,-3.6573,-3.6472,-3.6714,-3.6703,-3.6703,-3.6819,-3.682,-3.6822,-3.677,-3.6766,-3.6761,-3.6758,-3.6864,-3.6872,-3.688,-3.7013,0,0,-3.6905,-3.6908,0,0,0,0,0,0,0,0,-3.6567,-3.6582,-3.6703,-3.6704,-3.6704,-3.6776,-3.6772,-3.6886,-3.6771,-3.6744,-3.676,-3.6755,-3.6841,-3.6851,-3.6879,-3.7018,-3.7023,-3.6906,-3.6911,-3.6914,-3.6916,0,0,0,0,0,0,0,-3.6559,-3.6577,-3.6755,-3.6705,-3.6705,-3.6692,-3.6702,-3.6794,-3.6814,-3.6746,-3.6743,-3.6756,-3.684,-3.6872,-3.6882,-3.7024,-3.6905,-3.6913,-3.6918,-3.6921,-3.7273,-3.7277,0,0,0,0,0,0,-3.6553,-3.6571,-3.6752,-3.6759,-3.6624,-3.67,-3.6711,-3.6757,-3.6813,-3.6818,-3.6759,-3.6753,-3.686,-3.6872,-3.6885,-3.7041,-3.6914,-3.6922,-3.6926,-3.7268,-3.7274,-3.7279,0,0,0,0,0,0,-3.6547,-3.6569,-3.6748,-3.6664,-3.6686,-3.6708,-3.676,-3.6762,-3.6793,-3.6823,-3.6826,-3.6787,-3.6857,-3.6874,-3.6981,-3.7044,-3.6925,-3.6933,-3.7263,-3.727,-3.7276,-3.7356,0,0,0,0,0,0,-3.6541,-3.6568,-3.6619,-3.6666,-3.669,-3.6843,-3.6764,-3.6767,-3.6807,-3.68,-3.685,-3.6855,-3.6855,-3.6969,-3.6989,-3.7053,-3.6939,-3.7257,-3.7266,-3.7274,-3.7348,-3.7365,-3.7379,0,0,0,0,0,-3.6532,-3.6638,-3.6622,-3.6644,-3.6755,-3.6846,-3.686,-3.6858,-3.6812,-3.6863,-3.6882,-3.6853,-3.7035,-3.698,-3.7002,-3.707,-3.7253,-3.7264,-3.7273,-3.7341,-3.7362,-3.7379,0,0,0,0,0,0,-3.6599,-3.6644,-3.6627,-3.6751,-3.6795,-3.6837,-3.6902,-3.6881,-3.6939,-3.693,-3.6925,-3.6937,-3.7047,-3.707,-3.7008,-3.72,-3.7137,-3.7152,-3.7181,-3.72,-3.7216,-3.7207,-3.6946,0,0,0,0,0,-3.6629,-3.6699,-3.6735,-3.6841,-3.6864,-3.6879,-3.6919,-3.6913,-3.6959,-3.6977,-3.7004,-3.7049,-3.7115,-3.716,-3.7223,-3.7352,-3.736,-3.7409,-3.7425,-3.7438,-3.745,-3.7516,-3.7537,-3.7312,-3.7312,-3.7311,0,0,-3.669,-3.6723,-3.6768,-3.6856,-3.6889,-3.6961,-3.6895,-3.6975,-3.7028,-3.6989,-3.7091,-3.7112,-3.7162,-3.7279,-3.7332,-3.7302,-3.7514,-3.745,-3.746,-3.7466,-3.7528,-3.755,-3.7568,-3.7318,-3.7317,-3.7316,0,0,-3.6838,-3.6872,-3.6962,-3.6996,-3.7047,-3.7057,-3.7078,-3.7123,-3.7135,-3.7238,-3.7209,-3.7272,-3.7388,-3.7423,-3.7456,-3.7615,-3.7589,-3.7636,-3.7717,-3.7782,-3.7799,-3.7815,-3.7868,-3.7888,-3.7649,-3.7649,-3.7649,0,-3.6907,-3.7015,-3.7011,-3.7093,-3.713,-3.7098,-3.7189,-3.7223,-3.7292,-3.7318,-3.7283,-3.7426,-3.7457,-3.758,-3.7619,-3.7648,-3.7671,-3.7629,-3.7797,-3.7813,-3.7827,-3.7878,-3.7898,-3.7654,-3.7654,-3.7653,-3.7653,0,-3.7096,-3.7171,-3.7238,-3.7305,-3.7351,-3.7437,-3.7444,-3.7491,-3.7482,-3.7494,-3.7596,-3.7633,-3.7701,-3.7731,-3.7723,-3.7853,-3.7831,-3.7797,-3.7733,-3.7854,-3.7901,-3.7921,-3.7661,-3.766,-3.7658,-3.7657,0,0,-3.7289,-3.7351,-3.7375,-3.7403,-3.7457,-3.7514,-3.7598,-3.7664,-3.7703,-3.7752,-3.782,-3.7918,-3.7885,-3.7923,-3.7918,-3.7976,-3.8095,-3.7934,-3.7935,-3.7959,-3.8236,-3.8259,-3.8281,-3.8079,-3.8083,-3.8086,-3.823,0,-3.7437,-3.7583,-3.7581,-3.7715,-3.7783,-3.7752,-3.7825,-3.7864,-3.7878,-3.7937,-3.7952,-3.802,-3.7974,-3.7996,-3.8051,-3.8068,-3.8149,-3.8059,-3.814,-3.8143,-3.8125,-3.8307,-3.8332,-3.8467,-3.8249,-3.8252,-3.8255,0,-3.763,-3.7683,-3.7824,-3.7865,-3.7893,-3.7958,-3.8017,-3.8074,-3.8118,-3.8124,-3.8165,-3.8151,-3.8234,-3.8169,-3.8282,-3.822,-3.8253,-3.8267,-3.8272,-3.8277,-3.8204,-3.8313,-3.851,-3.8529,-3.8284,-3.8282,-3.828,0,-3.7751,-3.7859,-3.7956,-3.7982,-3.8033,-3.8079,-3.8102,-3.8142,-3.8181,-3.8233,-3.8257,-3.8319,-3.8352,-3.8399,-3.8401,-3.8355,-3.8514,-3.845,-3.8518,-3.8518,-3.8551,-3.8548,-3.8752,-3.8578,-3.8578,-3.8578,-3.8577,0,-3.7915,-3.8002,-3.8011,-3.807,-3.8165,-3.8163,-3.8257,-3.8276,-3.8311,-3.8372,-3.8351,-3.8409,-3.841,-3.8469,-3.8472,-3.8562,-3.8579,-3.8584,-3.8583,-3.8584,-3.8583,-3.8603,-3.8593,-3.8583,-3.8582,-3.8581,-3.858,0,-3.8066,-3.8076,-3.8179,-3.8219,-3.823,-3.8298,-3.8331,-3.8387,-3.8399,-3.8476,-3.8495,-3.8512,-3.858,-3.8588,-3.8668,-3.8669,-3.8777,-3.8768,-3.8762,-3.8759,-3.8826,-3.8818,-3.9047,-3.9076,-3.8887,-3.8889,-3.889,0,-3.8168,-3.8233,-3.8279,-3.8319,-3.8344,-3.8409,-3.8448,-3.8448,-3.8489,-3.8543,-3.8592,-3.8657,-3.8709,-3.8819,-3.8839,-3.8899,-3.8888,-3.8965,-3.8897,-3.8895,-3.8885,-3.888,-3.8884,-3.8977,-3.8979,-3.8981,-3.8982,0,-3.8347,-3.8349,-3.8406,-3.8465,-3.8512,-3.8559,-3.8603,-3.8636,-3.8641,-3.8689,-3.8757,-3.8798,-3.8878,-3.8942,-3.9001,-3.9024,-3.9003,-3.9003,-3.9022,-3.9022,-3.9014,-3.9015,-3.8794,-3.8997,-3.8996,-3.8995,-3.8994,-3.8993,-3.8474,-3.853,-3.857,-3.8634,-3.8666,-3.8707,-3.876,-3.8778,-3.8836,-3.89,-3.8897,-3.8972,-3.9012,-3.9088,-3.9115,-3.9173,-3.9147,-3.9175,-3.9181,-3.9187,-3.9192,-3.9007,-3.9184,-3.9184,-3.9184,-3.9183,-3.9183,0,-3.8649,-3.8673,-3.8732,-3.8793,-3.8843,-3.882,-3.8866,-3.8909,-3.8975,-3.9015,-3.9066,-3.9144,-3.9206,-3.923,-3.929,-3.9331,-3.9323,-3.9347,-3.9342,-3.9346,-3.9213,-3.919,-3.9352,-3.9352,-3.9352,-3.9352,-3.9352,-3.9352,-3.8745,-3.8836,-3.8842,-3.8949,-3.8972,-3.9045,-3.9073,-3.911,-3.9141,-3.9228,-3.9279,-3.9295,-3.9327,-3.9389,-3.9444,-3.945,-3.9471,-3.9498,-3.9499,-3.9374,-3.9356,-3.934,-3.9318,-3.9504,-3.9504,-3.9627,-3.9628,-3.9629]},{"header":{"parameterUnit":"m.s-1","parameterCategory":1,"la1":30.2991,"la2":30.254,"lo1":-89.0895,"lo2":-89.0444,"dy":0.0017,"dx":0.0017,"nx":28,"ny":28,"refTime":"2023-09-25T21:00:00:Z","depth":0,"parameterNumber":3,"parameterNumberName":"V-component_of_WINDS"},"data":[0,0,0,0,0,0,0,0,0,0,0,0,0,0,0,0,0,0,0,0,0,0,0,0,0,0,0,0,0,0,0,0,0,0,0,0,0,0,0,0,0,0,0,0,0,0,0,0,0,0,0,0,0,0,0,0,0,0,-1.7778,-1.7777,0,-1.7696,-1.7695,-1.7694,-1.7685,-1.7686,-1.7686,-1.7687,-1.7599,-1.7596,-1.7593,0,0,0,0,0,0,0,0,0,0,0,0,0,-1.7922,-1.7919,-1.7778,-1.7777,-1.7776,-1.7696,-1.7695,-1.7694,-1.7685,-1.7686,-1.7687,-1.7688,-1.76,-1.7597,-1.7593,0,0,0,0,0,0,0,0,0,0,0,0,0,-1.7851,-1.7919,-1.7778,-1.7762,-1.776,-1.7696,-1.7695,-1.7694,-1.7684,-1.7686,-1.7687,-1.7688,-1.7602,-1.7597,-1.7592,-1.7538,0,0,-1.7578,-1.7576,0,0,0,0,0,0,0,0,-1.7856,-1.7846,-1.7766,-1.7763,-1.776,-1.7702,-1.7713,-1.7641,-1.7684,-1.7713,-1.7687,-1.7689,-1.7632,-1.7625,-1.7607,-1.7534,-1.7531,-1.7578,-1.7575,-1.7573,-1.7572,0,0,0,0,0,0,0,-1.786,-1.785,-1.7746,-1.7764,-1.7761,-1.7757,-1.7748,-1.77,-1.7666,-1.7711,-1.771,-1.77,-1.7631,-1.7611,-1.7605,-1.7529,-1.7578,-1.7574,-1.7571,-1.7569,-1.7404,-1.7402,0,0,0,0,0,0,-1.7869,-1.7854,-1.7748,-1.7743,-1.7812,-1.7753,-1.7744,-1.7719,-1.7667,-1.766,-1.7699,-1.77,-1.7619,-1.761,-1.7602,-1.7531,-1.7573,-1.7568,-1.7566,-1.7405,-1.7403,-1.7402,0,0,0,0,0,0,-1.7872,-1.786,-1.7752,-1.7798,-1.7784,-1.775,-1.7722,-1.7717,-1.7697,-1.7659,-1.7652,-1.7686,-1.7619,-1.7608,-1.7553,-1.7528,-1.7566,-1.7562,-1.7407,-1.7405,-1.7402,-1.7393,0,0,0,0,0,0,-1.7876,-1.7861,-1.7842,-1.7798,-1.7782,-1.7707,-1.7721,-1.7715,-1.769,-1.769,-1.7644,-1.7637,-1.7619,-1.756,-1.7549,-1.7523,-1.7558,-1.7409,-1.7406,-1.7403,-1.7396,-1.7391,-1.7387,0,0,0,0,0,-1.7881,-1.7842,-1.7841,-1.7828,-1.7757,-1.7705,-1.7696,-1.7677,-1.7688,-1.7667,-1.7641,-1.7639,-1.7534,-1.7555,-1.7542,-1.7514,-1.741,-1.7407,-1.7403,-1.7398,-1.7392,-1.7387,0,0,0,0,0,0,-1.7884,-1.7837,-1.7834,-1.778,-1.7747,-1.7704,-1.7677,-1.7672,-1.7634,-1.7636,-1.7613,-1.7602,-1.7548,-1.7526,-1.755,-1.7457,-1.7473,-1.7466,-1.7473,-1.7467,-1.7463,-1.7468,-1.7555,0,0,0,0,0,-1.7878,-1.7841,-1.7802,-1.7758,-1.7741,-1.7712,-1.7689,-1.7677,-1.7641,-1.7626,-1.7597,-1.7561,-1.7519,-1.7492,-1.7452,-1.7393,-1.738,-1.7367,-1.7363,-1.7359,-1.7353,-1.7316,-1.7308,-1.739,-1.739,-1.739,0,0,-1.7866,-1.7835,-1.7814,-1.7757,-1.773,-1.769,-1.77,-1.7659,-1.7628,-1.762,-1.7566,-1.7543,-1.7501,-1.7442,-1.7415,-1.7422,-1.7328,-1.7355,-1.7352,-1.7348,-1.7311,-1.7304,-1.7297,-1.7387,-1.7388,-1.7388,0,0,-1.7822,-1.7797,-1.7756,-1.7728,-1.7687,-1.7667,-1.7657,-1.7614,-1.7599,-1.7544,-1.7536,-1.7499,-1.7429,-1.7398,-1.7373,-1.7315,-1.7309,-1.7302,-1.7279,-1.7242,-1.7236,-1.723,-1.7206,-1.7198,-1.7297,-1.7297,-1.7297,0,-1.7811,-1.7753,-1.7735,-1.7693,-1.7666,-1.7658,-1.7614,-1.7588,-1.7535,-1.7516,-1.7525,-1.7434,-1.7406,-1.7338,-1.7324,-1.7305,-1.729,-1.7307,-1.7239,-1.7233,-1.7227,-1.7203,-1.7194,-1.7296,-1.7296,-1.7296,-1.7296,0,-1.774,-1.7699,-1.767,-1.7619,-1.759,-1.7548,-1.7521,-1.7493,-1.7484,-1.7462,-1.7405,-1.737,-1.7321,-1.7304,-1.7295,-1.7234,-1.7239,-1.7244,-1.7259,-1.7218,-1.7195,-1.7187,-1.7295,-1.7295,-1.7295,-1.7296,0,0,-1.7695,-1.7634,-1.7623,-1.7599,-1.7551,-1.7518,-1.7474,-1.7426,-1.7401,-1.7365,-1.7324,-1.7264,-1.7267,-1.7239,-1.7225,-1.7194,-1.7145,-1.7202,-1.72,-1.7189,-1.7071,-1.7066,-1.7056,-1.7142,-1.714,-1.7139,-1.7073,0,-1.7644,-1.7566,-1.7547,-1.7479,-1.7439,-1.7429,-1.7389,-1.7354,-1.7333,-1.7294,-1.7269,-1.7225,-1.7235,-1.7217,-1.7186,-1.7158,-1.712,-1.7163,-1.7101,-1.7099,-1.7109,-1.7045,-1.704,-1.6979,-1.7065,-1.7063,-1.7062,0,-1.7574,-1.7535,-1.7463,-1.7417,-1.74,-1.7365,-1.7318,-1.7282,-1.7241,-1.7227,-1.7194,-1.7183,-1.7133,-1.7153,-1.7081,-1.711,-1.7084,-1.7066,-1.7063,-1.7054,-1.7076,-1.7031,-1.696,-1.695,-1.7049,-1.705,-1.7051,0,-1.7544,-1.7474,-1.7421,-1.7401,-1.7348,-1.7322,-1.7299,-1.7259,-1.7231,-1.7189,-1.7169,-1.7123,-1.7096,-1.7059,-1.7034,-1.7051,-1.6964,-1.6982,-1.6948,-1.6948,-1.6928,-1.6929,-1.6848,-1.6916,-1.6916,-1.6916,-1.6917,0,-1.7487,-1.7442,-1.7407,-1.7374,-1.7322,-1.73,-1.7249,-1.7225,-1.7189,-1.7149,-1.7138,-1.71,-1.7072,-1.7029,-1.7009,-1.6951,-1.694,-1.6925,-1.6919,-1.6924,-1.6925,-1.6904,-1.6907,-1.6914,-1.6915,-1.6915,-1.6915,0,-1.7445,-1.742,-1.736,-1.7314,-1.7301,-1.7265,-1.7224,-1.719,-1.7168,-1.7117,-1.7104,-1.7068,-1.7017,-1.6989,-1.6925,-1.6912,-1.6845,-1.6844,-1.6859,-1.6856,-1.6822,-1.6824,-1.6723,-1.6707,-1.6788,-1.6788,-1.6787,0,-1.7409,-1.7374,-1.7324,-1.7297,-1.7272,-1.7229,-1.7199,-1.7176,-1.7145,-1.7094,-1.7065,-1.7013,-1.6971,-1.6889,-1.6856,-1.6806,-1.6801,-1.6769,-1.6793,-1.6797,-1.6796,-1.6797,-1.6791,-1.6764,-1.6763,-1.6762,-1.6762,0,-1.7346,-1.7335,-1.7294,-1.7246,-1.7211,-1.7173,-1.7135,-1.7113,-1.7082,-1.7048,-1.6996,-1.6962,-1.6896,-1.6844,-1.6791,-1.6764,-1.6756,-1.6755,-1.6743,-1.6746,-1.6755,-1.6746,-1.6844,-1.6757,-1.6757,-1.6757,-1.6758,-1.6758,-1.7304,-1.7271,-1.7229,-1.7182,-1.7151,-1.7115,-1.708,-1.7052,-1.7009,-1.6953,-1.6942,-1.6886,-1.6842,-1.677,-1.6741,-1.6695,-1.6701,-1.6686,-1.6681,-1.6677,-1.6673,-1.6765,-1.6686,-1.6686,-1.6686,-1.6686,-1.6686,0,-1.7237,-1.721,-1.7167,-1.7114,-1.7075,-1.7074,-1.703,-1.6998,-1.6949,-1.691,-1.6867,-1.6805,-1.6753,-1.6715,-1.6662,-1.6632,-1.6626,-1.6618,-1.6618,-1.6611,-1.6673,-1.6686,-1.6623,-1.6623,-1.6623,-1.6623,-1.6623,-1.6623,-1.7198,-1.7141,-1.7124,-1.705,-1.7022,-1.6968,-1.6943,-1.6908,-1.6876,-1.6807,-1.6764,-1.674,-1.67,-1.6643,-1.6594,-1.6584,-1.6563,-1.6554,-1.6543,-1.6601,-1.6608,-1.6614,-1.6626,-1.6551,-1.6551,-1.6485,-1.6484,-1.6484]}]]